Terminal Aerodrome Forecast
Issued by NWS

Home | Current Version | Previous Version | Graphics & Text | Print | Product List | Glossary On
Versions: 1 2 3 4 5 6 7 8 9 10 11 12 13 14 15 16 17 18 19 20 21
000
FTUS43 KGRB 220858 AAA
TAFATW
TAF AMD
KATW 220858Z 2209/2306 14008KT P6SM OVC020
     FM221100 08003KT 5SM BR OVC009
     FM221500 05003KT P6SM BKN012
     FM221900 03007KT P6SM SCT025 BKN050
     FM222300 11005KT P6SM BKN050
     FM230300 15005KT P6SM VCSH BKN030=

USA.gov is the U.S. government's official web portal to all federal, state and local government web resources and services.